Regional Weather Roundup
Issued by NWS

Home | Current Version | Previous Version | Text Only | Print | Product List | Glossary On
Versions: 1 2 3 4 5 6 7 8 9 10 11 12 13 14 15 16 17 18 19 20 21 22 23 24 25 26 27 28 29 30 31 32 33 34 35 36 37 38 39 40 41 42 43 44 45 46 47 48 49 50
000
ASUS43 KLMK 172110
RWRKY
KENTUCKY REGIONAL WEATHER ROUNDUP
NATIONAL WEATHER SERVICE LOUISVILLE KY
400 PM EST WED DEC 17 2014

NOTE "FAIR" INDICATES FEW OR NO CLOUDS BELOW 12,000 FEET
WITH NO SIGNIFICANT WEATHER AND/OR OBSTRUCTIONS TO VISIBILITY.

KYZ001>023-026-027-061>063-070>075-172200-
WESTERN AND SOUTH CENTRAL KENTUCKY

CITY           SKY/WX    TMP DP  RH WIND       PRES   REMARKS
PADUCAH        MOSUNNY   39  27  62 NW3       30.27R
HENDERSON      PTSUNNY   36  25  64 W6        30.28R WCI  31
OWENSBORO      CLOUDY    36  27  70 NW7       30.28R WCI  30
HOPKINSVILLE   PTSUNNY   40  27  59 NW3       30.25S
BOWLING GREEN  SUNNY     40  26  57 W5        30.25S
GLASGOW        MOSUNNY   39  28  64 W6        30.23S WCI  34
$$

KYZ024-025-028>034-038-045-046-053-172200-
NORTH CENTRAL KENTUCKY

CITY           SKY/WX    TMP DP  RH WIND       PRES   REMARKS
LOUISVILLE/SDF PTSUNNY   35  25  66 W5        30.24S WCI  31
LOUISVILLE/LOU CLOUDY    34  25  69 W7        30.24S WCI  28
FORT KNOX      CLOUDY    36  27  69 W6        30.22R WCI  31
$$

KYZ035>037-039>044-047>052-055>060-089>105-172200-
NORTHEAST KENTUCKY

CITY           SKY/WX    TMP DP  RH WIND       PRES   REMARKS
LEXINGTON      CLOUDY    34  26  72 W8        30.20S WCI  27
COVINGTON      CLOUDY    31  22  69 W8        30.20S WCI  23
FRANKFORT      CLOUDY    34  26  72 W7        30.20S WCI  28
$$

KYZ054-064>069-076>088-106>120-172200-
SOUTHEAST KENTUCKY

CITY           SKY/WX    TMP DP  RH WIND       PRES   REMARKS
JACKSON        PTSUNNY   38  28  67 VRB3      30.17S
LONDON         MOSUNNY   39  27  62 VRB5      30.19F
SOMERSET       MOSUNNY   36  28  75 SW3       30.23S
MIDDLESBORO    SUNNY     42  31  63 NW3       30.17F
MONTICELLO     CLEAR     40  30  67 NW3       30.25R
$$



USA.gov is the U.S. government's official web portal to all federal, state and local government web resources and services.